Location: Unspecified
(0.0000°N, 0.0000°E)
Time: 20:50:36
(UTC+00:00)

SR - Pass Details

Date: 10 October 2020
Orbit: 582 x 874 km, 66.7° (Epoch: 20 October)

Event Time Altitude Azimuth Distance (km) Brightness Sun altitude
Rises 17:42:40 0° 317° (NW) 3,263 ? 1.0°
Reaches altitude 10° 17:45:22 10° 305° (NW) 2,382 ? 0.4°
Maximum altitude 17:49:56 26° 249° (WSW) 1,576 ? -0.8°
Drops below altitude 10° 17:54:42 10° 193° (SSW) 2,498 ? -2.0°
Sets 17:57:37 0° 181° (S) 3,454 ? -2.7°
